Guatemala, Guatemala

2:28 PM CST on June 22, 2018 (GMT -0600)
La Aurora International

Weather History for MGGT - March, 2018

Change the Weather History Date:

Wednesday, March 14, 2018

  Actual Average Record
Temperature  
Mean Temperature 69 °F -  
Max Temperature 78 °F 77 °F 84 °F (2005)
Min Temperature 60 °F 57 °F 55 °F (2009)
Cooling Degree Days 4    
Growing Degree Days 19 (Base 50)    
Moisture  
Dew Point 58 °F    
Average Humidity 72    
Maximum Humidity 94    
Minimum Humidity 39    
Precipitation  
Precipitation 0.00 in - - ()
Sea Level Pressure  
Sea Level Pressure 30.31 in    
Wind  
Wind Speed 27 mph ()    
Max Wind Speed 94 mph    
Max Gust Speed -    
Visibility 6.2 miles    
Events Snow    
Averages and records for this station are not official NWS values.
T = Trace of Precipitation, MM = Missing Value Source: Averaged Metar Reports

Daily Weather History Graph

Daily Weather History Graph

Search for Another Location

Airport or City:

Astronomy

Mar. 14, 2018 Rise Set
Actual Time 6:10 AM CST 6:12 PM CST
Civil Twilight 5:49 AM CST 6:33 PM CST
Nautical Twilight 5:24 AM CST 6:58 PM CST
Astronomical Twilight 4:59 AM CST 7:23 PM CST
Moon 4:12 AM CST (3/14) 4:02 PM CST (3/14)
Length of Visible Light 12h 44m
Length of Day
12h 01m
Waning Crescent, 8% of the Moon is Illuminated
Mar 14
Waning Crescent
Mar 17
New
Mar 24
First Quarter
Mar 31
Full
Apr 8
Last Quarter

Hourly Weather History & Observations

Time (CST) Temp. Dew Point Humidity Pressure Visibility Wind Dir Wind Speed Gust Speed Precip Events Conditions
12:00 AM - - %  in 6 mi WSW 94.4 mph - -  
12:00 AM 64.4 °F 59.0 °F 83% 30.33 in 6.2 mi North 13.8 mph - N/A   Scattered Clouds
1:00 AM 64.4 °F 59.0 °F 83% 30.30 in 6.2 mi North 11.5 mph - N/A   Partly Cloudy
2:00 AM 64.4 °F 60.8 °F 88% 30.30 in 6.2 mi North 9.2 mph - N/A   Partly Cloudy
3:00 AM 62.6 °F 59.0 °F 88% 30.27 in 6.2 mi North 11.5 mph - N/A   Partly Cloudy
4:00 AM 60.8 °F 59.0 °F 94% 30.27 in 6.2 mi North 9.2 mph - N/A   Partly Cloudy
5:00 AM 60.8 °F 59.0 °F 94% 30.27 in 6.2 mi North 9.2 mph - N/A   Scattered Clouds
6:00 AM - - %  in 1 mi WSW 94.4 mph - -  
6:00 AM 60.8 °F 59.0 °F 94% 30.30 in 6.2 mi North 13.8 mph - N/A   Mostly Cloudy
7:00 AM 60.8 °F 59.0 °F 94% 30.33 in 6.2 mi North 13.8 mph - N/A   Scattered Clouds
8:00 AM 64.4 °F 59.0 °F 83% 30.36 in 6.2 mi North 16.1 mph - N/A   Scattered Clouds
9:00 AM 68.0 °F 57.2 °F 68% 30.36 in 6.2 mi NNE 13.8 mph - N/A   Scattered Clouds
10:00 AM 69.8 °F 55.4 °F 60% 30.36 in 6.2 mi North 13.8 mph - N/A   Scattered Clouds
11:00 AM 73.4 °F 57.2 °F 57% 30.36 in 6.2 mi North 13.8 mph - N/A   Mostly Cloudy
12:00 PM - - %  in 19 mi WSW 94.4 mph - - Snow Low Drifting Snow
12:00 PM 73.4 °F 57.2 °F 57% 30.33 in 6.2 mi North 11.5 mph - N/A   Mostly Cloudy
1:00 PM 75.2 °F 57.2 °F 53% 30.30 in 6.2 mi NNE 11.5 mph - N/A   Mostly Cloudy
2:00 PM 75.2 °F 53.6 °F 47% 30.27 in 6.2 mi North 13.8 mph - N/A   Mostly Cloudy
3:00 PM 78.8 °F 51.8 °F 39% 30.24 in 6.2 mi NNE 20.7 mph - N/A   Scattered Clouds
4:00 PM 77.0 °F 55.4 °F 47% 30.24 in 6.2 mi North 18.4 mph - N/A   Partly Cloudy
5:00 PM 73.4 °F 55.4 °F 53% 30.27 in 6.2 mi NNE 16.1 mph - N/A   Scattered Clouds
6:00 PM - - %  in 0 mi WSW 94.4 mph - -  
6:00 PM 71.6 °F 57.2 °F 60% 30.27 in 6.2 mi NNE 16.1 mph - N/A   Scattered Clouds
7:00 PM 68.0 °F 59.0 °F 73% 30.30 in 6.2 mi NNE 16.1 mph - N/A   Scattered Clouds
8:00 PM 66.2 °F 57.2 °F 73% 30.33 in - North 13.8 mph - N/A   Clear
9:00 PM 64.4 °F 59.0 °F 83% 30.33 in 6.2 mi NNE 16.1 mph - N/A   Partly Cloudy
10:00 PM 64.4 °F 59.0 °F 83% 30.36 in 6.2 mi North 13.8 mph - N/A   Mostly Cloudy